Location: Владивосток
(43.1151°N, 131.8856°E)
Time: 21:15:28
(UTC+10:00)

DX 1 - Pass Details

Date: 03 July 2022
Orbit: 617 x 629 km, 98.4° (Epoch: 10 August)

Event Time Altitude Azimuth Distance (km) Brightness Sun altitude
Rises 21:54:17 0° 21° (NNE) 2,927 ? -9.2°
Reaches altitude 10° 21:56:37 10° 29° (NNE) 2,014 ? -9.5°
Maximum altitude 22:00:43 39° 98° (E) 950 ? -10.1°
Drops below altitude 10° 22:04:47 10° 168° (SSE) 1,992 ? -10.6°
Enters shadow 22:04:48 10° 168° (SSE) 2,003 ? -10.6°
